Location: Alsip
(41.6689°N, 87.7387°W)
Time: 14:07:44
(UTC+00:00)

XW-2B - Pass Details

Date: 26 October 2021
Orbit: 504 x 522 km, 97.5° (Epoch: 04 December)

Event Time Altitude Azimuth Distance (km) Brightness Sun altitude
Rises 11:34:26 0° 18° (NNE) 2,616 ? -8.4°
Reaches altitude 10° 11:36:35 10° 24° (NNE) 1,727 ? -8.0°
Maximum altitude 11:40:11 48° 99° (E) 672 ? -7.4°
Drops below altitude 10° 11:43:47 10° 175° (S) 1,720 ? -6.7°
Sets 11:45:55 0° 181° (S) 2,603 ? -6.3°
